This demonstration page uses our WeatherBlox Daily Observations layout. Learn more.

Left ArrowRight Arrow

Hourly Observations for February 14, 2022

Temp ( °F °C ) Dew Point ( °F °C ) Humidity (%) Winds ( mph kmh ) Pressure ( in mb ) Visibility ( mi km ) Precip ( " mm )
12:53 am 00:53 Cloudy 32 0 23 -5 69 69 ENE 12 19 30.12 1020 10 16 0.00 0.00
1:53 am 01:53 Partly Cloudy 31 -0.6 23 -5 72 72 ENE 13 20 30.09 1019 10 16 0.00 0.00
2:53 am 02:53 Clear 30 -1.1 23 -5 75 75 ENE 14 22 30.07 1018 10 16 0.00 0.00
3:53 am 03:53 Clear 29 -1.7 24 -4.4 82 82 ENE 12 19 30.04 1017 10 16 0.00 0.00
4:53 am 04:53 Clear 28 -2.2 24 -4.4 85 85 ENE 15 24 29.99 1016 10 16 0.00 0.00
5:53 am 05:53 Clear 26 -3.3 23 -5 88 88 ENE 10 17 29.99 1016 10 16 0.00 0.00
6:53 am 06:53 Partly Cloudy 27 -2.8 23 -5 85 85 E 15 24 29.92 1013 10 16 0.00 0.00
7:53 am 07:53 Sunny 27 -2.8 23 -5 85 85 ENE 6 9 29.93 1014 10 16 0.00 0.00
8:53 am 08:53 Sunny 28 -2.2 24 -4.4 85 85 E 7 11 29.92 1013 10 16 0.00 0.00
9:53 am 09:53 Sunny 32 0 25 -3.9 75 75 ENE 6 9 29.89 1012 10 16 0.00 0.00
10:53 am 10:53 Sunny 36 2.2 25 -3.9 64 64 VRB 3 6 29.87 1012 10 16 0.00 0.00
11:53 am 11:53 Sunny 40 4.4 26 -3.3 58 58 ENE 7 11 29.84 1011 10 16 0.00 0.00
12:53 pm 12:53 Mostly Sunny 44 6.7 27 -2.8 51 51 ENE 7 11 29.80 1009 10 16 0.00 0.00
1:53 pm 13:53 Mostly Cloudy 44 6.7 26 -3.3 49 49 NE 9 15 29.78 1008 10 16 0.00 0.00
2:53 pm 14:53 Partly Cloudy 42 5.6 27 -2.8 55 55 ENE 13 20 29.77 1008 10 16 0.00 0.00
3:53 pm 15:53 Cloudy 38 3.3 26 -3.3 62 62 ENE 18 30 29.77 1008 10 16 0.00 0.00
4:53 pm 16:53 Cloudy 37 2.8 25 -3.9 62 62 E 14 22 29.76 1008 10 16 0.00 0.00
5:53 pm 17:53 Cloudy 36 2.2 25 -3.9 64 64 E 22 35 29.74 1007 10 16 0.00 0.00
6:53 pm 18:53 Cloudy 33 0.6 24 -4.4 70 70 E 14 22 29.76 1008 10 16 0.00 0.00
7:53 pm 19:53 Cloudy 32 0 23 -5 69 69 E 15 24 29.75 1008 10 16 0.00 0.00
8:53 pm 20:53 Cloudy 31 -0.6 23 -5 72 72 ENE 14 22 29.76 1008 10 16 0.00 0.00
9:53 pm 21:53 Cloudy 30 -1.1 22 -5.6 72 72 NE 9 15 29.79 1009 10 16 0.00 0.00
10:53 pm 22:53 Cloudy 29 -1.7 22 -5.6 75 75 ENE 13 20 29.76 1008 10 16 0.00 0.00
11:53 pm 23:53 Cloudy 28 -2.2 21 -6.1 75 75 ENE 9 15 29.78 1009 10 16 0.00 0.00

Powered by AerisWeather